Weather History for Macon, GA

Change the Weather History Date:

Sunday, October 16, 2011

  Actual Average Record
Temperature  
Mean Temperature 67 °F 65 °F  
Max Temperature 86 °F 77 °F 88 °F (1971)
Min Temperature 47 °F 52 °F 35 °F (1987)
Degree Days  
Heating Degree Days 0 3  
Month to date heating degree days 22 30  
Since 1 July heating degree days 23 36  
Cooling Degree Days 2 3  
Month to date cooling degree days 25 67  
Year to date cooling degree days 2448 2117  
Growing Degree Days 15 (Base 50)    
Moisture  
Dew Point 50 °F    
Average Humidity 62    
Maximum Humidity 100    
Minimum Humidity 23    
Precipitation  
Precipitation 0.00 in 0.09 in 1.20 in (1922)
Month to date precipitation 0.64 1.52  
Year to date precipitation 26.40 37.05  
Sea Level Pressure  
Sea Level Pressure 30.10 in    
Wind  
Wind Speed 1 mph (West)    
Max Wind Speed 7 mph    
Max Gust Speed 13 mph    
Visibility 9 miles    
Events      
T = Trace of Precipitation, MM = Missing Value Source: NWS Daily Summary

Daily Weather History Graph

Daily Weather History Graph

Search for Another Location

Airport:

Trip Planner

Search our weather history database for the weather conditions in past years. The results will help you decide how hot, cold, wet, or windy it might be!

Date:

Astronomy

Oct. 16, 2011 Rise Set
Actual Time 7:39 AM EDT 7:00 PM EDT
Civil Twilight 7:14 AM EDT 7:25 PM EDT
Nautical Twilight 6:45 AM EDT 7:54 PM EDT
Astronomical Twilight 6:17 AM EDT 8:22 PM EDT
Moon 9:59 PM EDT (10/16) 11:41 AM EDT (10/16)
Length of Visible Light 12h 11m
Length of Day
11h 21m
Waning Gibbous, 82% of the Moon is Illuminated
Oct 16
Waning Gibbous
Oct 19
Last Quarter
Oct 26
New
Nov 2
First Quarter
Nov 10
Full

Hourly Weather History & Observations

Time (EDT) Temp. Dew Point Humidity Pressure Visibility Wind Dir Wind Speed Gust Speed Precip Events Conditions
12:53 AM 55.0 °F 53.1 °F 93% 30.11 in 10.0 mi WNW 3.5 mph - N/A   Clear
1:53 AM 55.4 °F 51.8 °F 88% 30.12 in 10.0 mi Calm Calm - N/A   Clear
2:53 AM 52.0 °F 51.1 °F 97% 30.12 in 10.0 mi Calm Calm - N/A   Clear
3:53 AM 48.9 °F 48.9 °F 100% 30.12 in 3.0 mi Calm Calm - N/A   Clear
4:53 AM 48.9 °F 48.0 °F 97% 30.12 in 9.0 mi Calm Calm - N/A   Clear
5:53 AM 48.9 °F 48.0 °F 97% 30.12 in 7.0 mi Calm Calm - N/A   Clear
6:53 AM 46.9 °F 46.0 °F 97% 30.13 in 10.0 mi WNW 3.5 mph - N/A   Clear
7:53 AM 46.9 °F 46.0 °F 97% 30.14 in 4.0 mi Calm Calm - N/A   Clear
8:53 AM 53.1 °F 50.0 °F 89% 30.15 in 10.0 mi Calm Calm - N/A   Clear
9:53 AM 60.1 °F 52.0 °F 75% 30.17 in 10.0 mi Calm Calm - N/A   Clear
10:53 AM 69.1 °F 52.0 °F 54% 30.17 in 10.0 mi Calm Calm - N/A   Clear
11:53 AM 75.0 °F 48.0 °F 38% 30.16 in 10.0 mi Calm Calm - N/A   Clear
12:53 PM 79.0 °F 48.0 °F 34% 30.14 in 10.0 mi Variable 3.5 mph - N/A   Clear
1:53 PM 82.0 °F 46.0 °F 28% 30.10 in 10.0 mi WNW 4.6 mph - N/A   Clear
2:53 PM 84.0 °F 48.9 °F 29% 30.07 in 10.0 mi West 3.5 mph - N/A   Clear
3:53 PM 84.9 °F 46.9 °F 27% 30.06 in 10.0 mi West 4.6 mph - N/A   Clear
4:53 PM 84.9 °F 43.0 °F 23% 30.04 in 10.0 mi Calm Calm - N/A   Clear
5:53 PM 84.9 °F 46.0 °F 26% 30.03 in 10.0 mi Calm Calm - N/A   Clear
6:53 PM 75.0 °F 55.0 °F 50% 30.04 in 10.0 mi Calm Calm - N/A   Clear
7:53 PM 64.0 °F 59.0 °F 84% 30.04 in 10.0 mi SSE 4.6 mph - N/A   Clear
8:53 PM 63.0 °F 59.0 °F 87% 30.05 in 10.0 mi Calm Calm - N/A   Clear
9:53 PM 60.1 °F 55.0 °F 83% 30.05 in 10.0 mi Calm Calm - N/A   Clear
10:53 PM 55.9 °F 54.0 °F 93% 30.05 in 10.0 mi Calm Calm - N/A   Clear
11:53 PM 55.9 °F 53.1 °F 90% 30.05 in 10.0 mi Calm Calm - N/A   Clear